User: anonymous   Login
Location: Hartman Creek State Park
(44.3257°N, 89.2134°W)
Time: 07:59:44
(UTC-05:00)
Language:

Cosmos 2263 Rocket - Orbit

View from above orbital plane
View from above orbital plane
View from above satellite
View from above satellite

Ground track
Ground track

The orbit data is extracted from the following two-line orbital elements,

1 22803U 93059B   17145.49116442 -.00000260 +00000-0 -10601-3 0  9991
2 22803 070.9902 297.2609 0015293 056.1615 304.0962 14.16771684224819
Epoch (UTC): 25 May 2017 11:47:16
Eccentricity: 0.0015293
inclination: 70.9902°
perigee height: 825 km
apogee height: 847 km
right ascension of ascending node: 297.2609°
argument of perigee: 56.1615°
revolutions per day: 14.16771684
mean anomaly at epoch: 304.0962°
orbit number at epoch: 22481

The dashed part of the orbit path shows where the satellite is in the earth's shadow,  

DLR